Regional Weather Roundup
Issued by NWS

Home | Current Version | Previous Version | Graphics & Text | Print | Product List | Glossary On
Versions: 1 2 3 4 5 6 7 8 9 10 11 12 13 14 15 16 17 18 19 20 21 22 23 24 25 26 27 28 29 30 31 32 33 34 35 36 37 38 39 40 41 42 43 44 45 46 47 48 49 50
000
ASUS43 KOAX 211702
RWRNE

WEATHER ROUNDUP FOR NEBRASKA
NATIONAL WEATHER SERVICE OMAHA NE
1200 PM CDT FRI JUL 21 2017

NOTES: SATELLITE DATA IS BEING USED TO AUGMENT CLOUD COVER ABOVE
       12000 FEET.
       "FAIR" INDICATES FEW OR NO CLOUDS BELOW 12,000 FEET WITH NO
       SIGNIFICANT WEATHER AND/OR OBSTRUCTIONS TO VISIBILITY.


NEZ001>004-019>022-054>056-211800-
NEBRASKA PANHANDLE

CITY           SKY/WX    TMP DP  RH WIND       PRES   REMARKS
SCOTTSBLUFF    SUNNY     87  56  34 W10       30.02R
ALLIANCE       SUNNY     87  57  35 W12       29.99S
CHADRON        SUNNY     89  52  28 NW17G26   29.94R
GORDON         FAIR      84  61  44 W12G20    29.94S
KIMBALL        SUNNY     89  49  25 N13       30.09S
SIDNEY         SUNNY     91  54  28 N10       30.05R
$$

NEZ057>060-069>072-079>082-211800-
SOUTHWEST NEBRASKA

CITY           SKY/WX    TMP DP  RH WIND       PRES   REMARKS
NORTH PLATTE   SUNNY     93  71  48 W6        29.89S HX 100
IMPERIAL       SUNNY     94  54  25 N10       29.96R HX  92
LEXINGTON      SUNNY     86  72  62 CALM      29.87R HX  93
MCCOOK         SUNNY     96  68  39 W5        29.88R HX 101
OGALLALA       SUNNY     95  54  24 W9        29.95S HX  93
$$

NEZ005>010-023>029-035>040-094-211800-
NORTH CENTRAL NEBRASKA

CITY           SKY/WX    TMP DP  RH WIND       PRES   REMARKS
VALENTINE      SUNNY     93  66  40 NW10      29.85S HX  96
BROKEN BOW     SUNNY     93  74  53 W7        29.85S HX 103
O`NEILL        MOSUNNY   86  68  55 CALM      29.83R
ORD            SUNNY     90  70  51 CALM      29.81S HX  95
THEDFORD       SUNNY     93  65  39 W14       29.89S HX  95
$$

NEZ041-046>049-061>064-073>077-083>087-211800-
SOUTH CENTRAL NEBRASKA

CITY           SKY/WX    TMP DP  RH WIND       PRES   REMARKS
GRAND ISLAND   SUNNY     89  68  49 S16       29.83R HX  93
AURORA         SUNNY     87  68  53 SW16      29.83R HX  90
HASTINGS       SUNNY     87  67  51 SW10G18   29.85F HX  90
HEBRON         SUNNY     92  70  48 S13G20    29.84S HX  98
HOLDREGE       SUNNY     86  65  48 SW8       29.87S
KEARNEY        SUNNY     88  69  53 S12       29.85S HX  92
YORK           SUNNY     86  72  62 SW14      29.82S HX  92
$$

NEZ011>018-030>034-042>045-211800-
NORTHEAST NEBRASKA

CITY           SKY/WX    TMP DP  RH WIND       PRES   REMARKS
NORFOLK        SUNNY     88  66  48 S7        29.80S HX  90
ALBION         SUNNY     90  69  50 S6        29.81S HX  95
BLAIR          SUNNY     91  71  52 SW13      29.82F HX  97
COLUMBUS       SUNNY     89  70  53 SW13      29.81F HX  94
FREMONT        SUNNY     92  68  45 SW9       29.82S HX  95
TEKAMAH        SUNNY     91  72  53 W6        29.81S HX  98
WAYNE          SUNNY     88  69  53 SE9       29.80F HX  92
$$

NEZ050>053-065>068-078-088>093-211800-
SOUTHEAST NEBRASKA

CITY           SKY/WX    TMP DP  RH WIND       PRES   REMARKS
LINCOLN        SUNNY     93  71  48 S14       29.81S HX 100
OMAHA EPPLEY   MOSUNNY   95  71  45 S14       29.80S HX 102
BEATRICE       SUNNY     95  71  45 S12G22    29.84S HX 103
FALLS CITY     SUNNY     93  74  53 S12       29.85F HX 103
NEBRASKA CITY  SUNNY     90  77  64 SW16      29.83F HX 103
PLATTSMOUTH    SUNNY     91  74  58 S14       29.83R HX 100
$$

NEZ044-045-051>053-067-211800-
OMAHA AREA

CITY           SKY/WX    TMP DP  RH WIND       PRES   REMARKS
OMAHA EPPLEY   MOSUNNY   95  71  45 S14       29.80S HX 102
BLAIR          SUNNY     91  71  52 SW13      29.82F HX  97
FREMONT        SUNNY     92  68  45 SW9       29.82S HX  95
MILLARD        SUNNY     95  75  51 S9        29.81S HX 106
OFFUTT AFB     SUNNY     92  72  51 S8        29.81R HX 100
PLATTSMOUTH    SUNNY     91  74  58 S14       29.83R HX 100
WAHOO          FAIR      92  69  47 SW10      29.82R HX  96
$$




USA.gov is the U.S. government's official web portal to all federal, state and local government web resources and services.